| time (UTC) | temp C | wind direction | speed KPH | gust KPH | rain 1hr cm | rain 24hr cm | rain mn cm | humidity % | barometer mb |
| 20260506104102 | 20 | 250 | 11.3 | 12.9 | 0.00 | 0.00 | 0.00 | 35 | 1009.3 |
| 20260506103002 | 20 | 250 | 11.3 | 12.9 | 0.00 | 0.00 | 0.00 | 36 | 1009.2 |
| 20260506101901 | 20 | 250 | 8.0 | 12.9 | 0.00 | 0.00 | 0.00 | 35 | 1009.3 |
| 20260506100801 | 20 | 250 | 9.7 | 12.9 | 0.00 | 0.00 | 0.00 | 34 | 1009.1 |
| 20260506095700 | 20 | 250 | 11.3 | 12.9 | 0.00 | 0.00 | 0.00 | 34 | 1009.0 |
| 20260506094600 | 20 | 250 | 9.7 | 12.9 | 0.00 | 0.00 | 0.00 | 32 | 1009.0 |
| 20260506093459 | 20 | 250 | 9.7 | 11.3 | 0.00 | 0.00 | 0.00 | 32 | 1008.8 |
| 20260506092358 | 20 | 250 | 9.7 | 12.9 | 0.00 | 0.00 | 0.00 | 32 | 1008.7 |
| 20260506091259 | 20 | 250 | 9.7 | 12.9 | 0.00 | 0.00 | 0.00 | 31 | 1008.7 |
| 20260506090157 | 20 | 250 | 9.7 | 14.5 | 0.00 | 0.00 | 0.00 | 31 | 1008.7 |
| 20260506085056 | 21 | 244 | 14.5 | 16.1 | 0.00 | 0.00 | 0.00 | 30 | 1009.0 |
| 20260506083956 | 21 | 241 | 12.9 | 16.1 | 0.00 | 0.00 | 0.00 | 30 | 1008.8 |
| 20260506082855 | 21 | 244 | 14.5 | 16.1 | 0.00 | 0.00 | 0.00 | 31 | 1008.6 |
| 20260506081754 | 20 | 266 | 12.9 | 19.3 | 0.00 | 0.00 | 0.00 | 33 | 1008.7 |
| 20260506080654 | 20 | 273 | 11.3 | 19.3 | 0.00 | 0.00 | 0.00 | 32 | 1008.8 |
| 20260506073352 | 22 | 142 | 4.8 | 9.7 | 0.00 | 0.00 | 0.00 | 26 | 1008.4 |
| 20260506072251 | 22 | 164 | 4.8 | 14.5 | 0.00 | 0.00 | 0.00 | 26 | 1008.5 |
| 20260506071151 | 23 | 164 | 4.8 | 11.3 | 0.00 | 0.00 | 0.00 | 25 | 1008.4 |
| 20260506061648 | 22 | 141 | 4.8 | 8.0 | 0.00 | 0.00 | 0.00 | 25 | 1008.3 |
| 20260506060547 | 22 | 141 | 8.0 | 19.3 | 0.00 | 0.00 | 0.00 | 24 | 1008.4 |
| 20260506051044 | 22 | 139 | 11.3 | 19.3 | 0.00 | 0.00 | 0.00 | 27 | 1008.3 |
| 20260506044843 | 22 | 142 | 12.9 | 19.3 | 0.00 | 0.00 | 0.00 | 28 | 1008.5 |
| 20260506043742 | 21 | 135 | 12.9 | 19.3 | 0.00 | 0.00 | 0.00 | 29 | 1008.5 |
| 20260506042641 | 22 | 125 | 11.3 | 17.7 | 0.00 | 0.00 | 0.00 | 27 | 1008.7 |
| 20260506041541 | 22 | 136 | 8.0 | 14.5 | 0.00 | 0.00 | 0.00 | 26 | 1008.7 |
| 20260506040440 | 22 | 122 | 9.7 | 12.9 | 0.00 | 0.00 | 0.00 | 27 | 1008.2 |
| 20260506035340 | 22 | 122 | 8.0 | 12.9 | 0.00 | 0.00 | 0.00 | 30 | 1008.1 |
| 20260506034239 | 22 | 116 | 11.3 | 16.1 | 0.00 | 0.00 | 0.00 | 27 | 1008.1 |
| 20260506033138 | 22 | 103 | 12.9 | 16.1 | 0.00 | 0.00 | 0.00 | 28 | 1007.6 |
| 20260506032038 | 22 | 122 | 9.7 | 11.3 | 0.00 | 0.00 | 0.00 | 28 | 1008.1 |
| 20260506030937 | 22 | 112 | 12.9 | 17.7 | 0.00 | 0.00 | 0.00 | 29 | 1007.8 |
| 20260506025836 | 22 | 106 | 14.5 | 17.7 | 0.00 | 0.00 | 0.00 | 28 | 1007.8 |
| 20260506024736 | 22 | 106 | 14.5 | 17.7 | 0.00 | 0.00 | 0.00 | 29 | 1007.5 |
| 20260506023635 | 22 | 105 | 14.5 | 16.1 | 0.00 | 0.00 | 0.00 | 29 | 1007.7 |
| 20260506022535 | 22 | 98 | 14.5 | 19.3 | 0.00 | 0.00 | 0.00 | 29 | 1007.1 |
| 20260506021434 | 22 | 101 | 16.1 | 19.3 | 0.00 | 0.00 | 0.00 | 27 | 1007.3 |
| 20260506020333 | 22 | 106 | 11.3 | 12.9 | 0.00 | 0.00 | 0.00 | 27 | 1007.5 |
| 20260506015233 | 23 | 79 | 8.0 | 9.7 | 0.00 | 0.00 | 0.00 | 25 | 1007.0 |
| 20260506014132 | 23 | 78 | 11.3 | 12.9 | 0.00 | 0.00 | 0.00 | 26 | 1006.9 |
| 20260506013032 | 23 | 63 | 8.0 | 9.7 | 0.00 | 0.00 | 0.00 | 26 | 1006.9 |
| 20260506011931 | 23 | 39 | 8.0 | 14.5 | 0.00 | 0.00 | 0.00 | 25 | 1006.7 |
| 20260506010830 | 23 | 43 | 8.0 | 12.9 | 0.00 | 0.00 | 0.00 | 25 | 1006.7 |
| 20260506005730 | 24 | 29 | 8.0 | 14.5 | 0.00 | 0.00 | 0.00 | 24 | 1006.8 |
| 20260506004629 | 24 | 4 | 9.7 | 14.5 | 0.00 | 0.00 | 0.00 | 23 | 1006.7 |
| 20260506003529 | 25 | 4 | 9.7 | 14.5 | 0.00 | 0.00 | 0.00 | 22 | 1006.7 |
| 20260506002428 | 25 | 26 | 11.3 | 16.1 | 0.00 | 0.00 | 0.00 | 22 | 1006.6 |
| 20260506001327 | 25 | 359 | 12.9 | 17.7 | 0.00 | 0.00 | 0.00 | 22 | 1006.5 |
| 20260506000227 | 25 | 4 | 14.5 | 19.3 | 0.00 | 0.00 | 0.00 | 21 | 1006.6 |
| 20260505235126 | 25 | 354 | 16.1 | 24.1 | 0.00 | 0.00 | 0.00 | 20 | 1006.7 |
| 20260505234025 | 26 | 354 | 17.7 | 22.5 | 0.00 | 0.00 | 0.00 | 20 | 1006.7 |
| 20260505232925 | 26 | 339 | 19.3 | 27.4 | 0.00 | 0.00 | 0.00 | 21 | 1006.6 |
| 20260505231824 | 26 | 343 | 17.7 | 29.0 | 0.00 | 0.00 | 0.00 | 20 | 1006.6 |
| 20260505230724 | 26 | 326 | 19.3 | 25.7 | 0.00 | 0.00 | 0.00 | 20 | 1006.6 |
| 20260505225623 | 26 | 299 | 19.3 | 29.0 | 0.00 | 0.00 | 0.00 | 21 | 1006.6 |
| 20260505224522 | 26 | 317 | 17.7 | 27.4 | 0.00 | 0.00 | 0.00 | 22 | 1006.5 |
| 20260505223422 | 26 | 314 | 17.7 | 29.0 | 0.00 | 0.00 | 0.00 | 23 | 1006.4 |
| 20260505222321 | 26 | 343 | 19.3 | 27.4 | 0.00 | 0.00 | 0.00 | 23 | 1006.6 |
| 20260505221220 | 26 | 328 | 22.5 | 27.4 | 0.00 | 0.00 | 0.00 | 24 | 1006.7 |
| 20260505220120 | 26 | 324 | 24.1 | 30.6 | 0.00 | 0.00 | 0.00 | 23 | 1006.7 |
| 20260505215019 | 27 | 308 | 17.7 | 27.4 | 0.00 | 0.00 | 0.00 | 23 | 1007.0 |
| 20260505213919 | 27 | 323 | 19.3 | 27.4 | 0.00 | 0.00 | 0.00 | 23 | 1006.8 |
| 20260505212818 | 28 | 324 | 17.7 | 22.5 | 0.00 | 0.00 | 0.00 | 20 | 1006.9 |
| 20260505211717 | 28 | 314 | 20.9 | 29.0 | 0.00 | 0.00 | 0.00 | 21 | 1006.9 |
| 20260505210617 | 28 | 289 | 20.9 | 32.2 | 0.00 | 0.00 | 0.00 | 20 | 1007.0 |
| 20260505205516 | 28 | 289 | 14.5 | 22.5 | 0.00 | 0.00 | 0.00 | 22 | 1007.1 |
| 20260505204416 | 28 | 278 | 14.5 | 29.0 | 0.00 | 0.00 | 0.00 | 21 | 1007.5 |
| 20260505203315 | 28 | 323 | 11.3 | 17.7 | 0.00 | 0.00 | 0.00 | 21 | 1007.7 |
| 20260505202214 | 28 | 258 | 12.9 | 20.9 | 0.00 | 0.00 | 0.00 | 22 | 1007.6 |
| 20260505201114 | 28 | 280 | 14.5 | 22.5 | 0.00 | 0.00 | 0.00 | 21 | 1007.7 |
| 20260505200013 | 27 | 282 | 16.1 | 22.5 | 0.00 | 0.00 | 0.00 | 22 | 1007.6 |
| 20260505194912 | 27 | 347 | 14.5 | 24.1 | 0.00 | 0.00 | 0.00 | 22 | 1007.5 |
| 20260505193812 | 28 | 308 | 12.9 | 19.3 | 0.00 | 0.00 | 0.00 | 21 | 1007.8 |
| 20260505192711 | 27 | 314 | 14.5 | 22.5 | 0.00 | 0.00 | 0.00 | 22 | 1007.9 |
| 20260505191611 | 27 | 349 | 9.7 | 14.5 | 0.00 | 0.00 | 0.00 | 23 | 1008.2 |
| 20260505190510 | 27 | 296 | 16.1 | 25.7 | 0.00 | 0.00 | 0.00 | 23 | 1008.4 |
| 20260505185409 | 26 | 334 | 12.9 | 24.1 | 0.00 | 0.00 | 0.00 | 22 | 1008.4 |
| 20260505184309 | 27 | 20 | 11.3 | 20.9 | 0.00 | 0.00 | 0.00 | 22 | 1008.4 |
| 20260505183208 | 26 | 313 | 11.3 | 19.3 | 0.00 | 0.00 | 0.00 | 23 | 1008.8 |
| 20260505182108 | 26 | 286 | 14.5 | 24.1 | 0.00 | 0.00 | 0.00 | 23 | 1008.7 |
| 20260505181007 | 26 | 307 | 14.5 | 22.5 | 0.00 | 0.00 | 0.00 | 23 | 1008.7 |
| 20260505175906 | 26 | 291 | 17.7 | 22.5 | 0.00 | 0.00 | 0.00 | 22 | 1008.8 |
| 20260505174806 | 26 | 285 | 16.1 | 27.4 | 0.00 | 0.00 | 0.00 | 22 | 1008.6 |
| 20260505173705 | 26 | 344 | 17.7 | 27.4 | 0.00 | 0.00 | 0.00 | 24 | 1008.9 |
| 20260505172604 | 25 | 312 | 22.5 | 29.0 | 0.00 | 0.00 | 0.00 | 25 | 1009.1 |
| 20260505171504 | 25 | 293 | 20.9 | 27.4 | 0.00 | 0.00 | 0.00 | 24 | 1009.2 |
| 20260505170403 | 25 | 283 | 20.9 | 33.8 | 0.00 | 0.00 | 0.00 | 24 | 1009.3 |
| 20260505165305 | 25 | 301 | 24.1 | 32.2 | 0.00 | 0.00 | 0.00 | 24 | 1009.2 |
| 20260505164202 | 25 | 316 | 25.7 | 35.4 | 0.00 | 0.00 | 0.00 | 25 | 1008.8 |
| 20260505163101 | 24 | 316 | 24.1 | 33.8 | 0.00 | 0.00 | 0.00 | 25 | 1009.0 |
| 20260505162001 | 25 | 291 | 24.1 | 30.6 | 0.00 | 0.00 | 0.00 | 23 | 1009.0 |
| 20260505160900 | 25 | 320 | 22.5 | 29.0 | 0.00 | 0.00 | 0.00 | 24 | 1009.0 |
| 20260505152458 | 23 | 303 | 17.7 | 29.0 | 0.00 | 0.00 | 0.00 | 27 | 1008.8 |
| 20260505151357 | 23 | 276 | 12.9 | 20.9 | 0.00 | 0.00 | 0.00 | 29 | 1008.8 |
| 20260505150258 | 22 | 272 | 12.9 | 17.7 | 0.00 | 0.00 | 0.00 | 33 | 1008.8 |
| 20260505130152 | 20 | 265 | 12.9 | 14.5 | 0.00 | 0.00 | 0.00 | 32 | 1007.6 |
| 20260505123948 | 20 | 241 | 11.3 | 16.1 | 0.00 | 0.00 | 0.00 | 31 | 1007.1 |
| 20260505122848 | 20 | 260 | 12.9 | 16.1 | 0.00 | 0.00 | 0.00 | 31 | 1007.1 |
| 20260505121748 | 20 | 256 | 12.9 | 16.1 | 0.00 | 0.00 | 0.00 | 32 | 1006.9 |
| 20260505120647 | 20 | 272 | 14.5 | 17.7 | 0.00 | 0.00 | 0.00 | 33 | 1006.6 |
| 20260505115621 | 20 | 258 | 14.5 | 17.7 | 0.00 | 0.00 | 0.00 | 33 | 1006.5 |
| 20260505115546 | 20 | 258 | 14.5 | 17.7 | 0.00 | 0.00 | 0.00 | 33 | 1006.5 |
| 20260505114446 | 20 | 253 | 14.5 | 19.3 | 0.00 | 0.00 | 0.00 | 34 | 1006.3 |
| 20260505113345 | 20 | 263 | 14.5 | 17.7 | 0.00 | 0.00 | 0.00 | 34 | 1006.3 |
| 20260505112244 | 20 | 272 | 14.5 | 17.7 | 0.00 | 0.00 | 0.00 | 34 | 1006.3 |
| 20260505111144 | 20 | 260 | 16.1 | 17.7 | 0.00 | 0.00 | 0.00 | 34 | 1006.2 |